Location: Unspecified
(0.0000°N, 0.0000°E)
Time: 06:49:21
(UTC+00:00)

TIROS 6 DEB - Pass Details

Date: 19 August 2024
Orbit: 609 x 625 km, 58.3° (Epoch: 04 September)

Event Time Altitude Azimuth Distance (km) Brightness Sun altitude
Exits shadow 03:32:09 17° 78° (ENE) 1,581 ? -36.8°
Drops below altitude 10° 03:33:33 10° 64° (ENE) 1,976 ? -36.5°
Sets 03:36:09 0° 51° (NE) 2,876 ? -35.8°
